Simultaneous Nadir Overpasses (SNOs) Predictions

Prediction of SNOs between GOES-15 and NPP Satellite Orbit:

Table of predicted SNOs for the next 14.0 days since TLE Epoch: 11/29/2019
Index Date Time (GOES-15) GOES-15 Lat,Lon NPP Lat,Lon Distance(km) Time Diff (sec)
1 11/30/2019 22:02:15 -0.03,-128.34 -0.31,-129.61 144.71 80
2 12/01/2019 21:46:10 -0.04,-128.33 0.68,-125.08 370.05 80
3 12/03/2019 10:05:17 0.01,-128.33 0.46,-130.35 230.09 80
4 12/04/2019 09:49:12 0.02,-128.31 -0.54,-125.82 284.53 80
5 12/05/2019 22:08:27 -0.00,-128.25 -0.67,-131.12 327.76 80
6 12/06/2019 21:52:21 -0.01,-128.22 0.33,-126.58 186.74 80
7 12/08/2019 10:11:29 -0.01,-128.22 0.81,-131.86 413.92 80
8 12/09/2019 09:55:23 0.00,-128.20 -0.19,-127.32 100.22 80
9 12/11/2019 21:55:53 -0.00,-128.09 -0.01,-128.08 1.09 80




NCC Satellite Simultaneous Nadir Overpasses (SNOs) Prediction Service
